KB5DPX Weather Reports


Display with metric or nautical units.
time (UTC)temp
F
wind
direction
speed
MPH
gust
MPH
rain 1hr
in
rain 24hr
in
rain mn
in
humidity
%
barometer
mb
20260901201756 81 0.0 0.0 0.00 0.00 0.00 80 1013.1
20260901201259 81 0.0 0.0 0.00 0.00 0.00 80 1013.1
20260901200747 81 0.0 0.0 0.00 0.00 0.00 81 1013.3
20260901200255 81 0.0 0.0 0.00 0.00 0.00 82 1013.3
20260901195805 80 0.0 0.0 0.00 0.00 0.00 83 1013.4
20260901195251 80 0.0 0.0 0.00 0.00 0.00 84 1013.5
20260901194801 80 0.0 0.0 0.00 0.00 0.00 84 1013.5
20260901194249 79 0.0 0.0 0.00 0.00 0.00 84 1013.7
20260901193756 79 0.0 0.0 0.00 0.00 0.00 84 1013.8
20260901192752 79 0.0 0.0 0.00 0.00 0.00 85 1013.8
20260901192259 79 0.0 0.0 0.00 0.00 0.00 85 1013.8
20260901191747 79 0.0 0.0 0.00 0.00 0.00 85 1013.9
20260901191257 79 0.0 0.0 0.00 0.00 0.00 85 1014.0
20260901190747 79 0.0 0.0 0.00 0.00 0.00 85 1014.0
20260901190256 79 0.0 0.0 0.00 0.00 0.00 85 1014.0
20260901185759 78 0.0 0.0 0.00 0.00 0.00 85 1014.1
20260901185248 79 0.0 0.0 0.00 0.00 0.00 85 1014.2
20260901184757 79 0.0 0.0 0.00 0.00 0.00 85 1014.1
20260901183749 79 0.0 0.0 0.00 0.00 0.00 84 1014.2
20260901183255 80 0.0 0.0 0.00 0.00 0.00 84 1014.3
20260901182802 80 0.0 0.0 0.00 0.00 0.00 84 1014.3
20260901182253 80 0.0 0.0 0.00 0.00 0.00 83 1014.4
20260901181801 80 0.0 0.0 0.00 0.00 0.00 83 1014.4
20260901181251 80 0.0 0.0 0.00 0.00 0.00 83 1014.4
20260901180758 80 0.0 0.0 0.00 0.00 0.00 83 1014.5
20260901180306 80 0.0 0.0 0.00 0.00 0.00 83 1014.5
20260901175754 80 0.0 0.0 0.00 0.00 0.00 82 1014.5
20260901175301 81 0.0 0.0 0.00 0.00 0.00 82 1014.5
20260901174751 81 0.0 0.0 0.00 0.00 0.00 82 1014.5
20260901174258 81 0.0 0.0 0.00 0.00 0.00 81 1014.5
20260901173807 81 0.0 0.0 0.00 0.00 0.00 81 1014.5
20260901173256 81 0.0 0.0 0.00 0.00 0.00 81 1014.6
20260901172804 81 0.0 0.0 0.00 0.00 0.00 82 1014.5
20260901172253 81 0.0 0.0 0.00 0.00 0.00 80 1014.6
20260901171301 81 0.0 0.0 0.00 0.00 0.00 80 1014.6
20260901170751 81 0.0 0.0 0.00 0.00 0.00 80 1014.5
20260901170300 81 0.0 0.0 0.00 0.00 0.00 81 1014.6
20260901165750 80 0.0 0.0 0.00 0.00 0.00 81 1014.7
20260901165255 80 0.0 0.0 0.00 0.00 0.00 83 1014.7
20260901164801 80 0.0 0.0 0.00 0.00 0.00 83 1014.6
20260901163755 79 0.0 0.0 0.00 0.00 0.00 85 1014.6
20260901163306 79 0.0 0.0 0.00 0.00 0.00 85 1014.6
20260901162754 78 0.0 0.0 0.00 0.00 0.00 86 1014.5
20260901162301 78 0.0 0.0 0.00 0.00 0.00 86 1014.6
20260901161748 78 0.0 0.0 0.00 0.00 0.00 86 1014.6
20260901161255 77 0.0 0.0 0.00 0.00 0.00 86 1014.7
20260901160805 77 0.0 0.0 0.00 0.00 0.00 86 1014.6
20260901160255 77 0.0 0.0 0.00 0.00 0.00 86 1014.7
20260901155800 77 0.0 0.0 0.00 0.00 0.00 85 1014.7
20260901155249 76 0.0 0.0 0.00 0.00 0.00 83 1014.8
20260901154756 76 0.0 0.0 0.00 0.00 0.00 81 1014.8
20260901154247 75 0.0 0.0 0.00 0.00 0.00 77 1014.8
20260901153753 74 0.0 0.0 0.00 0.00 0.00 73 1014.7
20260901153303 74 0.0 0.0 0.00 0.00 0.00 71 1014.8
20260901152753 74 0.0 0.0 0.00 0.00 0.00 64 1014.8
20260901152305 73 0.0 0.0 0.00 0.00 0.00 63 1014.8
20260901151257 73 0.0 0.0 0.00 0.00 0.00 59 1014.8
20260901150746 72 0.0 0.0 0.00 0.00 0.00 59 1014.9
20260901150248 72 0.0 0.0 0.00 0.00 0.00 59 1015.0
20260901145756 72 0.0 0.0 0.00 0.03 0.00 59 1015.0
20260901145306 72 0.0 0.0 0.00 0.03 0.00 59 1015.0
20260901144752 71 0.0 0.0 0.00 0.03 0.00 59 1015.0
20260901144300 71 0.0 0.0 0.00 0.03 0.00 59 1015.0
20260901143751 71 0.0 0.0 0.00 0.03 0.00 60 1014.9
20260901143258 71 0.0 0.0 0.00 0.03 0.00 60 1014.8
20260901142748 71 0.0 0.0 0.00 0.03 0.00 60 1014.8
20260901142253 71 0.0 0.0 0.00 0.03 0.00 60 1014.7
20260901141800 70 0.0 0.0 0.00 0.03 0.00 60 1014.6
20260901141306 70 0.0 0.0 0.00 0.03 0.00 60 1014.6
20260901140753 70 0.0 0.0 0.00 0.03 0.00 60 1014.6
20260901140303 69 0.0 0.0 0.00 0.03 0.00 60 1014.5
20260901135751 69 0.0 0.0 0.00 0.17 0.00 60 1014.6
20260901135259 69 0.0 0.0 0.00 0.17 0.00 60 1014.5
20260901134748 69 0.0 0.0 0.00 0.17 0.00 60 1014.5
20260901134256 69 0.0 0.0 0.00 0.17 0.00 60 1014.4
20260901133806 68 0.0 0.0 0.00 0.17 0.00 60 1014.5
20260901133254 68 0.0 0.0 0.00 0.17 0.00 60 1014.5
20260901132801 68 0.0 0.0 0.00 0.17 0.00 60 1014.6
20260901132251 68 0.0 0.0 0.00 0.17 0.00 60 1014.7
20260901131759 67 0.0 0.0 0.00 0.17 0.00 60 1014.6
20260901131248 67 0.0 0.0 0.00 0.17 0.00 60 1014.6
20260901130757 67 0.0 0.0 0.00 0.17 0.00 60 1014.7
20260901130304 67 0.0 0.0 0.00 0.17 0.00 60 1014.7
20260901125752 67 0.0 0.0 0.00 0.29 0.00 60 1014.7
20260901125259 67 0.0 0.0 0.00 0.29 0.00 60 1014.5
20260901124749 67 0.0 0.0 0.00 0.29 0.00 61 1014.4
20260901124256 67 0.0 0.0 0.00 0.29 0.00 61 1014.4
20260901123801 67 0.0 0.0 0.00 0.29 0.00 61 1014.4
20260901123252 67 0.0 0.0 0.00 0.29 0.00 61 1014.5
20260901122306 66 0.0 0.0 0.00 0.29 0.00 61 1014.4
20260901121752 65 0.0 0.0 0.00 0.29 0.00 61 1014.4
20260901121301 65 0.0 0.0 0.00 0.29 0.00 61 1014.4
20260901120748 65 0.0 0.0 0.00 0.29 0.00 61 1014.4
20260901120258 65 0.0 0.0 0.00 0.29 0.00 61 1014.3
20260901115748 65 0.0 0.0 0.00 0.30 0.00 61 1014.2
20260901115258 65 0.0 0.0 0.00 0.30 0.00 61 1014.2
20260901114804 65 0.0 0.0 0.00 0.30 0.00 61 1014.1
20260901114254 65 0.0 0.0 0.00 0.30 0.00 62 1014.1
20260901113801 64 0.0 0.0 0.00 0.30 0.00 62 1014.1
20260901113249 64 0.0 0.0 0.00 0.30 0.00 62 1014.0
20260901112758 64 0.0 0.0 0.00 0.30 0.00 62 1013.9
20260901112249 64 0.0 0.0 0.00 0.30 0.00 62 1013.9
20260901111757 64 0.0 0.0 0.00 0.30 0.00 62 1013.8
20260901111304 64 0.0 0.0 0.00 0.30 0.00 62 1013.8
20260901110753 64 0.0 0.0 0.00 0.30 0.00 62 1013.7
20260901110258 64 0.0 0.0 0.00 0.30 0.00 62 1013.7
20260901105748 64 0.0 0.0 0.00 0.34 0.00 62 1013.7
20260901105256 64 0.0 0.0 0.00 0.34 0.00 62 1013.7
20260901104806 64 0.0 0.0 0.00 0.34 0.00 62 1013.6
20260901104253 64 0.0 0.0 0.00 0.34 0.00 62 1013.5
20260901103802 64 0.0 0.0 0.00 0.34 0.00 62 1013.6
20260901103250 65 0.0 0.0 0.00 0.34 0.00 62 1013.4
20260901102758 65 0.0 0.0 0.00 0.34 0.00 62 1013.5
20260901102306 65 0.0 0.0 0.00 0.34 0.00 62 1013.5
20260901101752 65 0.0 0.0 0.00 0.34 0.00 62 1013.6
20260901100747 65 0.0 0.0 0.00 0.34 0.00 62 1013.6
20260901100256 65 0.0 0.0 0.00 0.34 0.00 62 1013.6
20260901095801 65 0.0 0.0 0.00 0.35 0.00 62 1013.6
20260901095250 65 0.0 0.0 0.00 0.35 0.00 62 1013.6
20260901094757 65 0.0 0.0 0.00 0.35 0.00 62 1013.5
20260901094248 65 0.0 0.0 0.00 0.35 0.00 62 1013.5
20260901093758 65 0.0 0.0 0.00 0.35 0.00 62 1013.5
20260901093247 65 0.0 0.0 0.00 0.35 0.00 62 1013.6
20260901092753 65 0.0 0.0 0.00 0.35 0.00 62 1013.6
20260901092305 65 0.0 0.0 0.00 0.35 0.00 62 1013.6
20260901091752 66 0.0 0.0 0.00 0.35 0.00 62 1013.6
20260901091303 66 0.0 0.0 0.00 0.35 0.00 62 1013.6
20260901090754 66 0.0 0.0 0.00 0.35 0.00 62 1013.5
20260901090303 66 0.0 0.0 0.00 0.35 0.00 62 1013.4
20260901085748 66 0.0 0.0 0.00 0.35 0.00 62 1013.4
20260901085257 66 0.0 0.0 0.00 0.35 0.00 62 1013.4
20260901084805 66 0.0 0.0 0.00 0.35 0.00 62 1013.4
20260901084253 66 0.0 0.0 0.00 0.35 0.00 62 1013.4
20260901083801 66 0.0 0.0 0.00 0.35 0.00 62 1013.4
20260901083250 66 0.0 0.0 0.00 0.35 0.00 62 1013.3
20260901082757 66 0.0 0.0 0.00 0.35 0.00 62 1013.3
20260901082306 66 0.0 0.0 0.00 0.35 0.00 62 1013.3
20260901081752 66 0.0 0.0 0.00 0.35 0.00 63 1013.3
20260901080749 66 0.0 0.0 0.00 0.35 0.00 63 1013.2
20260901080257 66 0.0 0.0 0.00 0.35 0.00 63 1013.1
20260901075749 66 0.0 0.0 0.00 0.35 0.00 62 1013.1
20260901075252 66 0.0 0.0 0.00 0.35 0.00 62 1013.1
20260901074803 66 0.0 0.0 0.00 0.35 0.00 62 1013.1
20260901074253 66 0.0 0.0 0.00 0.35 0.00 63 1013.1
20260901073804 67 0.0 0.0 0.00 0.35 0.00 62 1013.1
20260901073253 67 0.0 0.0 0.00 0.35 0.00 62 1013.1
20260901072803 66 0.0 0.0 0.00 0.35 0.00 62 1013.1
20260901072253 66 0.0 0.0 0.00 0.35 0.00 63 1013.1
20260901071759 66 0.0 0.0 0.00 0.35 0.00 63 1013.1
20260901071248 66 0.0 0.0 0.00 0.35 0.00 63 1013.2
20260901070755 66 0.0 0.0 0.00 0.35 0.00 64 1013.0
20260901070302 66 0.0 0.0 0.00 0.35 0.00 64 1013.1
20260901065749 66 0.0 0.0 0.00 0.35 0.00 64 1013.0
20260901065257 66 0.0 0.0 0.00 0.35 0.00 64 1013.0
20260901064807 67 0.0 0.0 0.00 0.35 0.00 65 1013.0
20260901064257 67 0.0 0.0 0.00 0.35 0.00 64 1013.0
20260901063747 67 0.0 0.0 0.00 0.35 0.00 64 1013.1
20260901063257 67 0.0 0.0 0.00 0.35 0.00 64 1013.0
20260901062804 67 0.0 0.0 0.00 0.35 0.00 64 1013.0
20260901062253 67 0.0 0.0 0.00 0.35 0.00 64 1013.0
20260901061754 67 0.0 0.0 0.00 0.35 0.00 64 1012.9
20260901061300 68 0.0 0.0 0.00 0.35 0.00 64 1012.9
20260901060749 68 0.0 0.0 0.00 0.35 0.00 66 1012.9
20260901060253 68 0.0 0.0 0.00 0.35 0.00 65 1012.9
20260901055251 68 0.0 0.0 0.00 0.35 0.00 64 1012.9
20260901054759 68 0.0 0.0 0.00 0.35 0.00 65 1013.0
20260901054249 68 0.0 0.0 0.00 0.35 0.00 65 1012.9
20260901053757 69 0.0 0.0 0.00 0.35 0.00 65 1012.9
20260901053306 69 0.0 0.0 0.00 0.35 0.00 64 1012.9
20260901052756 69 0.0 0.0 0.00 0.35 0.00 64 1013.0
20260901052306 68 0.0 0.0 0.00 0.35 0.00 66 1013.0
20260901051752 69 0.0 0.0 0.00 0.35 0.00 67 1012.9
20260901051300 69 0.0 0.0 0.00 0.35 0.00 67 1012.9
20260901050749 69 0.0 0.0 0.00 0.35 0.00 67 1012.9
20260901050259 69 0.0 0.0 0.00 0.35 0.00 66 1012.9
20260901045748 69 0.0 0.0 0.00 0.35 0.00 66 1012.9
20260901045257 69 0.0 0.0 0.00 0.35 0.00 66 1012.8
20260901044805 69 0.0 0.0 0.00 0.35 0.00 66 1012.9
20260901044256 70 0.0 0.0 0.00 0.35 0.00 67 1012.9
20260901043801 70 0.0 0.0 0.00 0.35 0.00 67 1012.9
20260901042754 70 0.0 0.0 0.00 0.35 0.00 68 1013.1
20260901042305 70 0.0 0.0 0.00 0.35 0.00 69 1013.1
20260901041751 70 0.0 0.0 0.00 0.35 0.00 70 1013.1
20260901041259 70 0.0 0.0 0.00 0.35 0.00 70 1013.1
20260901040750 70 0.0 0.0 0.00 0.35 0.00 71 1013.1
20260901040256 70 0.0 0.0 0.00 0.35 0.00 72 1013.1
20260901035803 70 0.0 0.0 0.00 0.36 0.35 72 1013.1
20260901035253 70 0.0 0.0 0.00 0.36 0.35 73 1013.1
20260901034801 70 0.0 0.0 0.00 0.36 0.35 73 1013.1
20260901034249 70 0.0 0.0 0.00 0.36 0.35 73 1013.0
20260901033757 70 0.0 0.0 0.00 0.36 0.35 74 1013.0
20260901033307 70 0.0 0.0 0.00 0.36 0.35 75 1013.0
20260901032755 71 0.0 0.0 0.00 0.36 0.35 75 1013.0
20260901032301 71 0.0 0.0 0.00 0.36 0.35 76 1012.9
20260901031750 71 0.0 0.0 0.00 0.36 0.35 77 1012.9
20260901031257 71 0.0 0.0 0.00 0.36 0.35 78 1012.8
20260901030253 71 0.0 0.0 0.00 0.36 0.35 77 1012.9
20260901025759 71 0.0 0.0 0.00 0.36 0.35 77 1012.8
20260901025249 71 0.0 0.0 0.00 0.36 0.35 76 1012.8
20260901024756 71 0.0 0.0 0.00 0.36 0.35 76 1012.9
20260901024304 71 0.0 0.0 0.00 0.36 0.35 76 1012.8
20260901023754 71 0.0 0.0 0.00 0.36 0.35 76 1012.9
20260901023301 71 0.0 0.0 0.00 0.36 0.35 77 1012.9
20260901022748 71 0.0 0.0 0.00 0.36 0.35 77 1012.9
20260901022258 71 0.0 0.0 0.00 0.36 0.35 78 1013.0
20260901021748 71 0.0 0.0 0.00 0.36 0.35 79 1012.9
20260901021257 71 0.0 0.0 0.00 0.36 0.35 79 1012.9
20260901020803 72 0.0 0.0 0.00 0.36 0.35 80 1012.9
20260901020253 72 0.0 0.0 0.00 0.36 0.35 80 1012.9
20260901015800 72 0.0 0.0 0.00 0.36 0.35 81 1013.0
20260901015250 72 0.0 0.0 0.00 0.36 0.35 82 1013.0
20260901014754 72 0.0 0.0 0.00 0.36 0.35 83 1012.9
20260901013804 72 0.0 0.0 0.00 0.36 0.35 83 1012.7
20260901013254 72 0.0 0.0 0.00 0.36 0.35 83 1012.8
20260901012803 72 0.0 0.0 0.00 0.36 0.35 82 1012.7
20260901012253 72 0.0 0.0 0.00 0.36 0.35 82 1012.7
20260901011801 72 0.0 0.0 0.00 0.36 0.35 82 1012.5
20260901011251 72 0.0 0.0 0.00 0.36 0.35 82 1012.5
20260901010757 72 0.0 0.0 0.00 0.36 0.35 82 1012.5
20260901010304 72 0.0 0.0 0.00 0.36 0.35 82 1012.5
20260901005753 72 0.0 0.0 0.00 0.36 0.35 82 1012.5
20260901005301 72 0.0 0.0 0.00 0.36 0.35 82 1012.5
20260901004751 72 0.0 0.0 0.00 0.36 0.35 83 1012.4
20260901004257 72 0.0 0.0 0.00 0.36 0.35 83 1012.2
20260901003748 72 0.0 0.0 0.00 0.36 0.35 83 1012.3
20260901003258 72 0.0 0.0 0.00 0.36 0.35 82 1012.3
20260901002807 72 0.0 0.0 0.00 0.36 0.35 83 1012.3
20260901002255 72 0.0 0.0 0.00 0.36 0.35 83 1012.2
20260901001801 72 0.0 0.0 0.00 0.36 0.35 84 1012.2
20260901001251 72 0.0 0.0 0.00 0.36 0.35 85 1012.3
20260901000800 73 0.0 0.0 0.00 0.36 0.35 85 1012.4
20260901000250 73 0.0 0.0 0.00 0.36 0.35 86 1012.3
20260831235756 73 0.0 0.0 0.00 0.36 0.35 86 1012.3
20260831235306 73 0.0 0.0 0.00 0.36 0.35 86 1012.3
20260831234750 73 0.0 0.0 0.00 0.36 0.35 86 1012.3
20260831234257 73 0.0 0.0 0.00 0.36 0.35 86 1012.4
20260831233804 73 0.0 0.0 0.00 0.36 0.35 86 1012.3
20260831233254 74 0.0 0.0 0.00 0.36 0.35 86 1012.3
20260831232804 74 0.0 0.0 0.00 0.36 0.35 86 1012.1
20260831232254 74 0.0 0.0 0.00 0.36 0.35 86 1012.1
20260831231802 74 0.0 0.0 0.00 0.36 0.35 85 1012.0
20260831231251 75 0.0 0.0 0.00 0.36 0.35 85 1012.0
20260831230757 75 0.0 0.0 0.00 0.36 0.35 85 1011.9
20260831230249 75 0.0 0.0 0.00 0.36 0.35 85 1011.8
20260831225758 75 0.0 0.0 0.00 0.36 0.35 84 1011.8
20260831225306 75 0.0 0.0 0.00 0.36 0.35 84 1011.8
20260831224753 75 0.0 0.0 0.00 0.36 0.35 83 1011.9
20260831224300 76 0.0 0.0 0.00 0.36 0.35 83 1011.8
20260831223750 76 0.0 0.0 0.00 0.36 0.35 83 1011.7
20260831223259 76 0.0 0.0 0.00 0.36 0.35 83 1011.8
20260831222747 76 0.0 0.0 0.00 0.36 0.35 83 1011.8
20260831222258 76 0.0 0.0 0.00 0.36 0.35 82 1011.8
20260831221806 77 0.0 0.0 0.00 0.36 0.35 81 1011.8
20260831221255 78 0.0 0.0 0.00 0.36 0.35 81 1011.7
20260831220801 79 0.0 0.0 0.00 0.36 0.35 79 1011.7
20260831220253 80 0.0 0.0 0.00 0.36 0.35 77 1011.7
20260831215754 80 0.0 0.0 0.00 0.36 0.35 76 1011.6
20260831215306 81 0.0 0.0 0.00 0.36 0.35 78 1011.5
20260831214753 81 0.0 0.0 0.00 0.36 0.35 77 1011.5
20260831214301 81 0.0 0.0 0.00 0.36 0.35 78 1011.5
20260831213749 80 0.0 0.0 0.00 0.36 0.35 79 1011.4
20260831213257 80 0.0 0.0 0.00 0.36 0.35 79 1011.4
20260831212253 80 0.0 0.0 0.00 0.36 0.35 78 1011.4
20260831211801 80 0.0 0.0 0.00 0.36 0.35 78 1011.5
20260831211251 80 0.0 0.0 0.00 0.36 0.35 78 1011.5
20260831210758 80 0.0 0.0 0.00 0.36 0.35 77 1011.6
20260831210249 80 0.0 0.0 0.00 0.36 0.35 77 1011.6
20260831205758 80 0.0 0.0 0.00 0.36 0.35 77 1011.5
20260831205306 80 0.0 0.0 0.00 0.36 0.35 76 1011.5
20260831204754 80 0.0 0.0 0.00 0.36 0.35 77 1011.5
20260831204301 80 0.0 0.0 0.00 0.36 0.35 76 1011.5
20260831203751 81 0.0 0.0 0.00 0.36 0.35 75 1011.6
20260831203258 81 0.0 0.0 0.00 0.36 0.35 74 1011.6
20260831202803 82 0.0 0.0 0.00 0.36 0.35 73 1011.7
20260831202253 83 0.0 0.0 0.00 0.36 0.35 71 1011.8